FW0837 Weather Reports


time (UTC)temp
F
wind
direction
speed
knots
gust
knots
rain 1hr
in
rain 24hr
in
rain mn
in
humidity
%
barometer
mb
20260505024049 59 179 1.7 7.0 0.00 0.00 0.00 56 1010.0
20260505023545 60 203 2.6 7.0 0.00 0.00 0.00 56 1010.0
20260505023046 60 238 0.9 6.1 0.00 0.00 0.00 55 1010.0
20260505022546 60 210 1.7 8.7 0.00 0.00 0.00 55 1010.0
20260505022045 60 206 2.6 8.7 0.00 0.00 0.00 54 1010.1
20260505021602 60 256 2.6 7.0 0.00 0.00 0.00 54 1010.1
20260505021045 60 232 0.9 7.0 0.00 0.00 0.00 54 1010.0
20260505020545 61 216 0.9 7.8 0.00 0.00 0.00 54 1010.0
20260505020048 61 153 1.7 7.0 0.00 0.00 0.00 53 1010.0
20260505015545 61 182 1.7 7.0 0.00 0.00 0.00 53 1009.9
20260505015045 61 205 1.7 7.8 0.00 0.00 0.00 53 1009.9
20260505014546 61 191 2.6 7.0 0.00 0.00 0.00 52 1009.9
20260505014044 62 145 3.5 8.7 0.00 0.00 0.00 52 1009.9
20260505013544 62 187 2.6 7.8 0.00 0.00 0.00 52 1009.8
20260505013044 62 221 2.6 9.6 0.00 0.00 0.00 51 1009.6
20260505012545 62 166 2.6 14.8 0.00 0.00 0.00 51 1009.4
20260505012046 62 187 4.3 14.8 0.00 0.00 0.00 50 1009.3
20260505011551 63 197 3.5 15.6 0.00 0.00 0.00 50 1009.3
20260505011044 63 142 1.7 15.6 0.00 0.00 0.00 50 1009.2
20260505010543 63 187 4.3 13.9 0.00 0.00 0.00 49 1009.2
20260505010044 63 218 4.3 13.9 0.00 0.00 0.00 49 1009.0
20260505005542 63 231 2.6 13.9 0.00 0.00 0.00 48 1008.9
20260505005042 64 241 6.1 11.3 0.00 0.00 0.00 47 1008.7
20260505004545 64 185 3.5 13.0 0.00 0.00 0.00 47 1008.6
20260505004041 64 198 4.3 13.0 0.00 0.00 0.00 46 1008.6
20260505003541 65 239 4.3 13.0 0.00 0.00 0.00 46 1008.4
20260505003041 65 249 7.0 13.9 0.00 0.00 0.00 45 1008.2
20260505002541 65 155 3.5 13.0 0.00 0.00 0.00 44 1008.0
20260505002041 66 182 3.5 8.7 0.00 0.00 0.00 43 1008.0
20260505001541 66 220 0.9 5.2 0.00 0.00 0.00 41 1007.7
20260505001041 66 231 2.6 7.8 0.00 0.00 0.00 40 1007.5
20260505000540 66 226 3.5 7.8 0.00 0.00 0.00 40 1007.5
20260505000044 66 222 1.7 5.2 0.00 0.00 0.00 41 1007.4
20260504235540 67 237 1.7 7.8 0.00 0.00 0.00 41 1007.3
20260504235040 67 225 2.6 7.8 0.00 0.00 0.00 39 1007.2
20260504234540 67 231 0.9 7.8 0.00 0.00 0.00 39 1007.2
20260504234042 68 201 1.7 7.8 0.00 0.00 0.00 38 1007.1
20260504233541 68 221 1.7 12.2 0.00 0.00 0.00 38 1007.0
20260504233054 68 240 2.6 12.2 0.00 0.00 0.00 38 1007.0
20260504232539 69 245 1.7 9.6 0.00 0.00 0.00 37 1006.9
20260504232038 69 164 4.3 10.4 0.00 0.00 0.00 37 1006.8
20260504231538 69 242 3.5 10.4 0.00 0.00 0.00 37 1006.9
20260504231038 69 224 4.3 11.3 0.00 0.00 0.00 37 1006.8
20260504230538 69 191 2.6 8.7 0.00 0.00 0.00 36 1006.6
20260504230038 70 250 4.3 9.6 0.00 0.00 0.00 35 1006.6
20260504225539 70 254 4.3 12.2 0.00 0.00 0.00 35 1006.6
20260504225037 70 235 5.2 12.2 0.00 0.00 0.00 35 1006.5
20260504224537 71 229 4.3 9.6 0.00 0.00 0.00 34 1006.4
20260504224039 71 241 3.5 10.4 0.00 0.00 0.00 35 1006.4
20260504223538 71 264 4.3 10.4 0.00 0.00 0.00 35 1006.2
20260504223038 71 214 3.5 8.7 0.00 0.00 0.00 35 1006.4
20260504222537 71 236 4.3 10.4 0.00 0.00 0.00 35 1006.3
20260504222036 71 225 2.6 10.4 0.00 0.00 0.00 35 1006.3
20260504221545 71 260 5.2 9.6 0.00 0.00 0.00 34 1006.4
20260504221036 71 200 3.5 13.0 0.00 0.00 0.00 35 1006.3
20260504220536 71 250 5.2 12.2 0.00 0.00 0.00 35 1006.4
20260504220047 72 271 6.1 13.0 0.00 0.00 0.00 33 1006.3
20260504215536 71 239 6.1 15.6 0.00 0.00 0.00 35 1006.4
20260504215035 71 231 3.5 15.6 0.00 0.00 0.00 33 1006.3
20260504214537 72 218 6.1 13.9 0.00 0.00 0.00 33 1006.4
20260504214035 72 260 7.0 13.9 0.00 0.00 0.00 32 1006.3
20260504213535 73 213 4.3 13.9 0.00 0.00 0.00 32 1006.3
20260504213035 72 298 5.2 13.9 0.00 0.00 0.00 33 1006.3
20260504212534 72 242 2.6 14.8 0.00 0.00 0.00 32 1006.4
20260504212037 72 255 8.7 13.9 0.00 0.00 0.00 32 1006.3
20260504211533 72 220 6.1 13.0 0.00 0.00 0.00 33 1006.4
20260504211033 73 243 6.1 12.2 0.00 0.00 0.00 32 1006.4
20260504210534 72 249 2.6 10.4 0.00 0.00 0.00 34 1006.4
20260504210033 71 274 4.3 14.8 0.00 0.00 0.00 34 1006.3
20260504205534 72 244 6.1 17.4 0.00 0.00 0.00 33 1006.3
20260504205033 74 253 6.1 9.6 0.00 0.00 0.00 31 1006.3
20260504204547 74 199 4.3 10.4 0.00 0.00 0.00 33 1006.2
20260504204031 73 272 4.3 16.5 0.00 0.00 0.00 32 1006.2
20260504203533 73 239 7.0 16.5 0.00 0.00 0.00 31 1006.5
20260504203032 72 249 7.0 14.8 0.00 0.00 0.00 32 1006.4
20260504202531 73 278 6.1 16.5 0.00 0.00 0.00 33 1006.4
20260504202030 73 270 9.6 16.5 0.00 0.00 0.00 31 1006.4
20260504201531 74 264 5.2 12.2 0.00 0.00 0.00 33 1006.3
20260504201029 73 226 3.5 13.0 0.00 0.00 0.00 32 1006.4
20260504200534 73 149 4.3 18.2 0.00 0.00 0.00 31 1006.4
20260504200028 72 256 8.7 18.2 0.00 0.00 0.00 31 1006.5
20260504195527 73 220 7.0 13.9 0.00 0.00 0.00 31 1006.4
20260504195027 72 262 7.8 14.8 0.00 0.00 0.00 31 1006.5
20260504194531 72 224 8.7 18.2 0.00 0.00 0.00 31 1006.5
20260504194027 72 183 9.6 18.2 0.00 0.00 0.00 31 1006.6
20260504193526 73 256 6.1 13.9 0.00 0.00 0.00 31 1006.5
20260504193026 73 220 7.8 16.5 0.00 0.00 0.00 31 1006.5
20260504192525 72 225 7.0 18.2 0.00 0.00 0.00 33 1006.6
20260504192024 72 309 8.7 18.2 0.00 0.00 0.00 31 1006.6
20260504191523 72 257 8.7 18.2 0.00 0.00 0.00 30 1006.6
20260504191023 72 216 8.7 18.2 0.00 0.00 0.00 32 1006.6
20260504190523 72 262 7.8 15.6 0.00 0.00 0.00 31 1006.6
20260504190025 72 252 6.1 16.5 0.00 0.00 0.00 33 1006.5
20260504185521 72 268 7.8 18.2 0.00 0.00 0.00 33 1006.8
20260504185020 72 221 5.2 15.6 0.00 0.00 0.00 32 1006.8
20260504184523 71 286 7.0 20.0 0.00 0.00 0.00 31 1007.0
20260504184019 71 270 8.7 20.0 0.00 0.00 0.00 32 1007.2
20260504183518 71 233 7.8 17.4 0.00 0.00 0.00 31 1007.0
20260504183019 71 238 10.4 17.4 0.00 0.00 0.00 32 1007.1
20260504182517 71 253 6.1 11.3 0.00 0.00 0.00 33 1007.1
20260504182016 71 185 3.5 16.5 0.00 0.00 0.00 36 1007.1
20260504181516 71 241 7.0 16.5 0.00 0.00 0.00 31 1007.2
20260504181015 70 196 5.2 19.1 0.00 0.00 0.00 32 1007.2
20260504180515 70 257 6.1 15.6 0.00 0.00 0.00 35 1007.1
20260504180014 70 272 8.7 13.9 0.00 0.00 0.00 34 1007.3
20260504175514 69 293 7.8 13.9 0.00 0.00 0.00 33 1007.2
20260504175013 70 257 7.8 21.7 0.00 0.00 0.00 33 1007.3
20260504174513 69 228 9.6 21.7 0.00 0.00 0.00 34 1007.2
20260504174013 70 289 7.8 20.0 0.00 0.00 0.00 33 1007.2
20260504173514 69 241 7.8 20.0 0.00 0.00 0.00 32 1007.3
20260504173012 69 256 7.8 19.1 0.00 0.00 0.00 33 1007.3
20260504172510 69 216 7.0 19.1 0.00 0.00 0.00 33 1007.5
20260504172010 69 239 9.6 19.1 0.00 0.00 0.00 33 1007.6
20260504171509 69 251 6.1 22.6 0.00 0.00 0.00 35 1007.3
20260504171012 68 260 9.6 18.2 0.00 0.00 0.00 35 1007.4
20260504170508 67 220 9.6 18.2 0.00 0.00 0.00 35 1007.6
20260504160106 66 195 7.8 20.9 0.00 0.00 0.00 36 1008.0
20260504151051 64 204 6.1 16.5 0.00 0.00 0.00 41 1008.3
20260504150550 64 233 7.0 15.6 0.00 0.00 0.00 40 1008.5
20260504141040 62 249 4.3 8.7 0.00 0.00 0.00 44 1009.3
20260504140543 62 295 7.0 12.2 0.00 0.00 0.00 44 1009.4
20260504130524 58 266 5.2 13.0 0.00 0.00 0.00 51 1009.8
20260504110551 46 230 0.9 3.5 0.00 0.00 0.00 64 1010.6
20260504100538 44 214 0.9 5.2 0.00 0.00 0.00 66 1010.6
20260504081541 43 224 0.9 3.5 0.00 0.00 0.00 67 1010.4
20260504081026 43 223 0.0 2.6 0.00 0.00 0.00 67 1010.4
20260504080525 43 223 0.9 3.5 0.00 0.00 0.00 68 1010.4
20260504050558 37 237 0.9 2.6 0.00 0.00 0.00 79 1010.2
20260504045557 37 237 0.9 3.5 0.00 0.00 0.00 79 1010.3
20260504045057 37 237 0.9 2.6 0.00 0.00 0.00 78 1010.3
20260504044556 37 236 0.9 2.6 0.00 0.00 0.00 78 1010.4
20260504044055 37 237 0.9 3.5 0.00 0.00 0.00 78 1010.4
20260504043555 37 237 0.9 3.5 0.00 0.00 0.00 78 1010.3
20260504043059 37 237 1.7 4.3 0.00 0.00 0.00 79 1010.3
20260504042556 37 239 1.7 4.3 0.00 0.00 0.00 80 1010.3
20260504042053 37 231 1.7 4.3 0.00 0.00 0.00 80 1010.3
20260504041551 37 237 0.9 2.6 0.00 0.00 0.00 80 1010.3
20260504041053 37 237 0.0 2.6 0.00 0.00 0.00 80 1010.3
20260504040551 36 237 0.9 2.6 0.00 0.00 0.00 80 1010.3
20260504040050 36 237 0.9 2.6 0.00 0.00 0.00 80 1010.2
20260504035549 36 237 0.9 2.6 0.00 0.00 0.00 80 1010.3
20260504035050 36 236 0.9 2.6 0.00 0.00 0.00 81 1010.2
20260504034550 36 243 0.9 2.6 0.00 0.00 0.00 80 1010.2
20260504034049 37 257 0.9 2.6 0.00 0.00 0.00 80 1010.2
20260504033551 36 257 0.9 2.6 0.00 0.00 0.00 79 1010.2
20260504033049 37 257 0.9 2.6 0.00 0.00 0.00 79 1010.1
20260504032548 37 257 0.0 2.6 0.00 0.00 0.00 79 1010.1
20260504032053 37 257 0.9 2.6 0.00 0.00 0.00 79 1010.1
20260504031548 37 257 0.9 3.5 0.00 0.00 0.00 79 1010.1
20260504031045 37 265 0.9 2.6 0.00 0.00 0.00 79 1010.1
20260504030545 37 265 0.9 2.6 0.00 0.00 0.00 79 1010.1
20260504030045 37 265 0.9 2.6 0.00 0.00 0.00 79 1010.0
20260504025544 37 265 0.9 2.6 0.00 0.00 0.00 79 1010.1
20260504025044 37 265 0.9 2.6 0.00 0.00 0.00 79 1010.0
20260504024545 37 265 0.9 2.6 0.00 0.00 0.00 78 1010.0